RH
84 84 89 99 99 96 93 94 98 98 100 100 100 100 98 100 100 100 99 83 91 72 73 66 61 54 61 69 82 57 70 70 91 88 80 83 74 66 49 46 46 51 58 55 60 85 63 46 47 43 49 58 55 54
87 87 86 99 98 96 96 93 99 98 100 100 100 99 98 99 99 100 100 92 98 91 80 78 70 61 54 46 61 61 63 62 77 90 76 66 62 64 50 50 55 48 45 41 42 42 59 61 55 53 55 55 56 54
89 87 87 99 99 98 94 96 100 98 98 100 100 99 98 96 100 100 100 95 97 82 88 85 84 83 67 54 47 56 60 48 56 56 69 72 65 60 56 53 54 57 57 50 54 59 58 61 62 61 56 52 50 48
92 86 86 97 98 97 95 98 100 98 99 100 100 98 99 97 100 100 100 93 80 73 81 87 88 84 75 62 45 53 50 48 53 57 69 69 64 69 64 56 52 51 55 57 66 65 61 62 60 54 53 51 50 53
94 86 83 96 98 95 96 98 99 99 97 100 100 99 97 98 100 100 100 100 91 86 83 91 93 88 74 71 65 60 55 55 67 70 71 74 72 72 80 66 60 56 51 50 47 50 49 52 61 57 55 56 56 55
93 88 84 97 99 94 96 99 98 97 98 100 99 99 98 99 100 100 100 99 99 89 85 98 95 90 81 75 71 68 64 62 68 78 85 90 88 70 78 68 55 61 60 53 47 58 59 60 62 60 57 60 60 57
92 91 88 97 98 94 97 99 100 95 99 100 100 99 98 100 100 100 95 97 99 89 82 99 99 95 88 82 79 78 73 73 72 90 84 83 85 74 69 66 50 68 65 61 58 59 77 70 68 64 59 61 58 48
91 92 88 97 98 95 98 100 100 98 100 100 100 98 100 100 100 100 89 100 100 87 85 100 99 98 93 96 92 88 91 85 90 91 91 76 90 78 77 60 67 77 75 72 71 62 64 63 65 65 60 56 50 35
88 92 90 98 98 93 98 99 98 100 100 100 99 99 100 100 96 95 97 98 82 75 94 93 100 100 98 99 92 85 86 94 94 83 84 83 78 90 69 62 71 79 68 72 69 65 66 64 64 62 58 41 38 40
89 92 60 96 96 92 98 100 100 100 100 100 99 95 94 92 89 91 92 85 83 77 73 87 91 99 94 94 96 88 93 99 100 98 96 95 83 72 62 60 61 65 67 67 72 83 74 67 62 52 38 40 41 42
87 83 49 98 91 93 98 100 100 100 100 100 98 89 96 91 82 73 96 91 89 97 91 96 88 94 93 91 91 89 96 96 99 88 87 91 90 77 76 64 65 66 67 67 59 59 58 52 38 38 39 40 42 44
70 70 57 88 90 93 97 100 100 99 98 96 80 99 98 76 74 88 97 99 97 92 99 92 95 88 88 70 85 84 92 86 88 83 92 92 75 72 89 79 75 72 72 68 63 58 46 37 36 38 42 44 46 47
67 52 71 86 94 95 98 100 100 99 100 94 92 91 89 97 97 93 98 99 99 98 100 100 100 89 76 72 85 78 86 85 84 91 88 75 74 76 87 83 78 76 75 68 54 37 36 39 46 49 50 52 52 53
61 36 85 96 91 97 99 99 100 100 98 98 100 100 97 100 92 87 81 89 80 99 100 97 98 90 85 86 78 84 80 75 88 92 80 62 71 73 77 87 81 78 52 42 39 42 46 49 52 54 55 56 59 61
51 43 87 88 90 98 98 100 100 100 100 100 99 98 99 95 98 91 88 91 97 100 90 94 95 87 90 88 77 89 93 88 72 73 68 73 72 71 78 88 78 52 46 44 44 47 48 46 48 50 55 60 65 66
33 62 86 90 86 97 98 100 100 100 100 100 99 96 96 96 98 99 100 98 98 88 62 67 94 92 96 86 89 89 81 82 73 82 70 67 69 86 83 84 77 49 48 47 44 43 46 48 49 55 62 67 69 67
43 78 86 90 87 98 99 100 99 100 100 99 97 96 90 94 92 95 94 97 96 75 89 88 84 90 91 94 93 82 86 76 79 70 63 57 54 65 80 74 51 43 42 46 48 51 53 55 59 64 70 71 69 67
64 76 80 82 88 97 98 99 99 99 98 99 96 99 99 97 93 95 98 98 85 75 75 79 87 98 96 98 96 83 87 86 75 71 68 48 44 44 43 45 47 47 47 48 52 57 62 65 66 70 72 72 70 71
63 65 66 75 92 98 98 98 98 97 98 98 100 100 99 100 100 98 99 95 73 56 64 75 77 82 76 76 77 85 84 80 86 79 61 53 51 52 52 52 52 54 60 64 66 66 68 70 72 74 74 73 73 74
42 49 65 78 93 97 98 98 98 98 97 98 98 98 99 99 100 100 98 93 78 73 87 76 60 63 66 66 70 69 72 72 68 72 70 65 62 60 59 58 58 59 60 62 67 70 71 72 76 78 79 78 80 81
40 52 60 81 95 97 97 97 98 98 98 97 98 98 99 99 99 99 99 100 100 99 84 78 82 75 72 71 70 73 76 69 63 59 62 67 65 59 56 57 58 59 60 65 69 73 78 83 85 86 87 88 88 90
55 57 66 79 95 97 97 97 98 98 97 98 97 98 98 98 99 99 100 98 99 98 80 78 80 79 73 69 67 62 58 55 53 54 53 50 51 55 56 58 67 66 70 73 77 81 88 92 93 92 92 90 77 59
55 61 67 76 80 81 96 96 97 96 96 97 97 96 96 97 98 99 97 98 98 100 88 82 80 72 65 69 59 54 49 40 36 36 40 41 45 51 55 60 65 69 72 77 85 92 92 92 93 93 83 63 55 55
63 62 69 84 87 97 88 96 96 96 97 94 95 94 94 96 97 97 95 95 98 100 93 86 77 73 73 67 53 50 46 44 36 40 46 48 50 58 66 70 74 76 82 87 91 93 94 94 91 73 59 57 57 54
60 81 73 90 81 87 94 94 95 93 94 94 94 94 94 96 95 95 94 95 96 97 99 91 82 69 60 57 54 50 48 50 51 51 59 65 69 72 75 78 83 88 92 93 94 95 94 84 64 58 58 57 49 40
92 98 92 99 96 89 93 94 95 95 94 94 94 95 96 94 94 94 92 97 96 96 97 96 82 73 64 58 56 62 64 63 62 62 67 73 78 84 84 85 88 94 94 100 96 88 69 61 60 59 53 43 39 40
86 96 100 98 94 91 86 84 82 87 95 95 94 94 94 94 94 91 96 95 95 95 96 96 97 92 65 66 70 68 68 70 72 72 73 78 84 90 95 92 93 92 93 81 70 64 62 61 57 48 42 42 43 45
83 92 87 93 94 97 95 95 96 91 90 88 94 94 94 88 91 96 96 96 96 96 96 95 87 76 74 72 70 69 69 71 72 76 83 89 94 96 94 92 88 81 72 66 65 64 60 53 46 44 46 48 51 51
93 92 88 98 98 100 100 92 89 95 95 90 84 89 93 99 99 96 96 96 96 95 92 86 82 77 73 71 71 73 75 78 82 85 84 84 92 94 91 83 75 70 69 66 63 57 50 46 47 50 52 51 49 48
94 99 98 99 100 100 100 98 98 97 88 81 82 86 94 100 100 100 97 95 93 94 93 90 85 83 81 79 80 85 87 86 88 89 83 84 85 85 81 77 74 71 68 63 55 50 50 51 54 54 52 52 50 46
100 99 97 100 100 100 100 100 100 96 92 90 86 79 89 92 92 94 93 94 92 93 94 92 90 88 87 85 85 85 87 89 90 90 88 88 88 88 84 83 82 73 63 56 54 53 56 59 58 58 58 59 51 43
100 95 95 100 100 100 100 100 100 99 100 95 96 94 96 93 93 90 88 89 89 90 95 95 94 93 90 88 89 89 90 93 94 93 93 94 95 93 91 85 80 70 60 56 58 60 62 63 64 64 59 47 44 43
97 95 97 98 100 100 100 98 98 98 97 100 100 100 100 100 98 99 97 96 95 96 97 97 96 96 97 95 92 90 92 96 97 96 97 98 96 93 91 88 76 64 62 62 63 64 66 68 58 45 46 46 46 42
Wind_Speed
30 32 31 33 33 32 29 28 27 25 18 20 18 15 15 22 19 18 15 14 14 4 3 5 4 5 7 7 4 7 6 1 1 1 3 2 3 4 3 6 10 10 8 5 6 5 10 8 6 6 4 11 16 18
29 30 31 32 33 34 31 31 26 24 13 21 19 14 17 21 20 17 13 14 13 6 2 3 4 6 8 9 10 19 1 6 7 3 2 4 3 2 6 5 1 6 3 3 7 4 2 1 2 3 11 20 14 18
29 30 32 32 33 34 34 32 23 21 14 21 20 15 19 21 20 19 15 14 13 5 3 4 3 4 5 6 16 6 5 9 9 8 4 1 2 3 5 3 4 2 3 2 4 2 1 2 6 11 16 19 19 18
28 30 32 31 34 34 34 31 22 20 14 20 20 16 21 23 22 19 15 17 11 5 2 1 3 2 2 5 13 6 9 14 13 8 2 2 2 3 2 2 2 1 9 6 1 1 5 5 9 21 21 20 19 16
27 29 32 31 34 35 36 31 19 20 15 24 20 17 22 23 22 17 17 16 19 3 3 3 4 3 3 4 6 8 14 16 6 3 1 2 3 4 1 1 3 7 6 5 3 15 3 18 20 21 22 19 16 14
27 28 31 31 34 35 36 29 17 17 18 26 21 20 22 23 20 16 8 18 22 12 5 3 3 3 7 8 10 11 10 7 5 4 3 3 2 2 4 4 2 9 9 7 3 16 6 20 22 21 20 17 14 12
26 27 31 31 34 35 35 26 13 16 24 25 21 22 23 23 21 13 5 10 22 16 4 3 2 5 7 6 4 5 6 5 3 4 2 3 2 3 2 4 4 13 11 8 12 19 11 20 16 20 16 16 13 11
25 26 30 30 34 34 36 22 12 20 26 27 25 24 23 20 20 10 3 15 23 8 4 3 1 3 7 3 3 3 3 3 5 3 3 2 3 2 5 6 8 13 13 14 18 9 14 23 24 21 17 14 12 9
25 25 29 29 33 36 36 18 15 24 28 30 29 28 20 17 9 9 11 12 8 4 5 3 5 3 8 3 3 3 2 2 2 1 2 3 3 5 6 12 19 22 19 21 17 12 21 26 24 20 16 15 11 8
25 24 28 29 33 36 34 18 15 31 35 36 35 13 7 13 14 15 5 6 3 1 3 2 4 3 5 3 2 2 2 2 2 1 1 2 4 8 9 12 21 24 18 27 26 21 25 24 21 19 16 11 8 6
22 23 25 28 31 33 35 8 26 35 42 36 12 6 20 29 13 3 3 2 1 1 5 5 5 4 4 2 3 1 2 1 3 2 2 2 4 4 12 16 21 24 19 25 23 26 25 21 22 18 13 9 6 4
21 22 23 27 28 31 32 8 15 46 30 16 16 26 27 7 3 4 3 2 4 5 5 5 6 6 5 4 3 2 2 1 3 2 2 4 3 2 11 18 23 22 25 24 23 22 21 19 16 13 10 8 5 2
18 20 21 24 26 30 30 12 30 39 27 36 16 6 7 3 4 9 10 5 4 6 11 9 5 7 5 4 4 2 3 2 6 3 4 4 2 9 16 19 25 22 24 21 24 24 20 17 14 10 8 5 1 1
16 18 19 21 28 28 25 4 35 35 24 4 5 8 7 5 7 5 5 5 5 12 23 17 7 3 4 2 3 4 2 3 3 3 6 2 8 15 18 21 30 28 28 28 25 20 17 14 11 8 5 2 2 3
15 16 15 21 27 27 25 7 28 31 4 4 5 5 5 4 3 4 9 10 8 27 27 13 8 5 2 4 2 4 4 4 6 5 2 3 16 19 23 28 31 30 28 23 19 16 13 9 7 5 4 4 4 4
15 13 17 22 26 26 21 10 23 13 3 3 3 4 6 4 2 4 7 9 23 28 22 6 4 3 2 5 5 6 8 7 3 3 4 18 19 20 28 33 31 27 23 18 14 10 8 7 7 6 5 4 3 4
12 12 17 22 26 21 12 7 8 4 3 3 2 5 5 3 5 6 10 14 28 21 3 3 5 3 5 4 6 4 5 2 3 7 18 26 28 28 31 30 26 21 17 13 10 8 7 7 7 6 4 3 3 3
12 14 16 21 24 15 11 6 3 4 4 3 2 5 3 4 13 10 10 26 20 10 5 2 7 4 6 7 4 3 4 3 8 19 29 30 28 27 25 24 20 17 14 12 10 9 9 9 8 5 3 3 3 3
12 16 19 19 19 10 8 6 5 3 3 3 7 8 7 7 11 12 17 23 20 6 14 2 3 2 3 3 3 7 13 14 18 26 31 29 27 24 21 18 15 13 11 9 8 8 8 8 6 3 2 2 3 4
13 14 17 15 13 6 4 5 4 3 1 2 5 6 7 6 12 18 22 18 14 5 3 2 1 1 1 3 7 15 22 34 39 34 28 24 21 18 15 12 11 10 9 9 9 7 7 6 5 4 3 4 4 5
12 13 14 12 7 9 4 5 4 3 2 4 6 3 4 11 9 7 6 14 4 2 2 2 6 11 14 15 17 24 35 32 28 30 30 23 18 13 12 11 9 8 7 8 7 7 6 5 5 5 5 6 6 6
12 14 10 8 6 5 4 10 3 3 3 2 3 3 3 2 3 4 9 4 3 3 5 13 21 24 24 24 24 25 23 22 21 21 17 16 15 12 10 8 8 7 6 6 6 6 6 6 6 7 7 6 6 4
11 9 5 6 3 7 4 9 4 6 2 2 2 2 2 2 3 6 3 3 3 4 17 25 22 20 22 21 21 21 18 16 16 14 12 10 9 7 6 5 5 4 6 6 6 6 7 8 8 7 7 6 3 1
10 6 5 5 8 3 5 6 4 4 3 2 2 2 2 2 3 3 3 2 4 16 19 22 23 22 20 18 17 16 14 10 10 9 8 6 6 7 7 6 6 6 5 5 7 8 9 9 9 8 6 3 2 3
4 6 6 5 5 5 4 3 4 3 2 3 2 2 2 3 2 2 2 2 7 16 20 18 16 17 20 16 14 12 11 10 8 8 9 8 7 8 8 7 7 7 7 8 10 11 11 11 9 6 3 2 3 4
4 4 4 1 4 2 2 3 4 3 2 2 2 2 2 1 3 3 2 3 3 8 14 15 15 16 15 13 14 13 13 12 10 8 9 8 7 5 6 7 9 10 11 11 9 11 11 9 6 3 2 2 4 5
2 2 1 2 2 2 2 3 2 1 3 3 1 2 2 3 2 2 2 4 6 9 11 13 15 14 15 17 15 13 12 11 10 7 7 8 7 8 7 5 8 10 12 12 11 9 6 4 3 2 1 3 5 7
1 4 2 2 2 3 2 1 2 2 2 3 2 3 2 2 1 1 2 9 11 12 13 15 15 16 15 14 12 11 10 9 8 8 8 9 9 9 8 9 10 12 11 10 8 6 4 3 1 1 3 5 7 10
1 4 4 3 2 3 1 1 0 2 4 2 1 2 2 3 4 7 10 11 13 14 14 15 15 14 13 12 11 11 10 9 9 11 10 11 12 11 11 11 11 10 8 6 5 3 2 2 1 3 5 7 10 11
3 5 3 1 2 1 1 2 2 4 6 6 5 5 5 5 8 11 12 13 13 12 12 12 12 11 10 10 12 12 11 9 8 6 7 11 11 14 14 12 10 8 6 4 3 3 1 2 3 5 8 11 13 14
4 6 3 2 1 1 3 4 4 4 3 4 6 6 6 6 6 7 8 9 9 9 9 9 9 9 8 8 9 8 8 7 7 8 9 10 12 13 12 10 8 6 5 4 3 3 3 5 7 9 12 14 15 16
4 4 3 2 0 3 4 2 2 2 2 2 3 4 5 4 4 6 7 9 9 9 10 9 8 8 8 9 9 9 9 10 8 9 10 11 12 10 9 7 5 4 4 3 3 4 6 8 10 13 14 14 15 15
4 4 3 4 2 1 4 3 2 2 3 3 3 2 2 3 3 4 4 8 10 11 11 11 10 10 10 10 9 9 9 11 10 11 12 11 10 8 7 5 5 4 4 4 5 6 9 11 13 14 14 15 16 16
Wind_Direction
325 326 324 322 328 330 326 321 313 276 296 200 214 229 219 204 205 216 224 215 205 230 265 213 205 157 153 165 146 160 132 67 69 91 122 182 219 187 156 142 168 174 177 189 200 193 248 149 133 206 106 125 135 133
323 323 323 322 327 328 327 322 309 282 288 197 211 226 213 203 202 212 217 208 212 233 250 184 163 170 181 174 153 169 170 150 165 104 235 140 161 163 180 182 165 191 202 191 207 209 39 180 342 152 150 140 136 132
323 323 323 322 327 325 329 324 309 287 278 191 208 223 207 200 200 207 206 197 175 171 163 159 141 122 139 180 171 158 186 178 168 155 143 127 188 177 173 188 127 217 163 189 169 176 285 184 136 137 139 137 140 138
322 323 324 322 327 325 328 324 305 287 270 194 203 217 201 198 202 203 202 187 185 159 149 145 150 152 104 159 187 199 191 165 151 142 130 153 162 216 174 95 194 92 157 154 159 159 113 160 157 149 143 140 141 143
317 323 324 322 327 325 329 326 285 273 264 193 200 208 196 198 199 201 208 200 202 184 139 138 121 60 86 128 165 174 160 147 138 122 119 124 115 148 52 104 197 191 159 186 206 181 165 175 164 158 151 149 151 157
318 321 323 322 326 326 328 326 277 274 215 191 199 196 193 193 187 185 206 225 201 183 128 145 163 128 107 113 125 135 140 129 115 109 110 117 153 211 168 203 169 181 185 176 153 161 153 157 161 161 156 156 159 161
317 319 322 324 327 328 328 322 272 257 195 187 196 185 187 187 183 188 207 189 186 172 157 105 150 174 153 133 110 91 92 90 89 103 85 117 126 177 182 212 168 180 178 170 157 151 121 158 165 166 166 160 162 164
317 319 323 325 327 330 329 315 250 237 188 189 179 176 179 184 193 207 202 169 169 162 174 123 124 159 165 116 103 95 89 81 47 101 117 130 148 198 237 212 168 166 162 155 161 169 170 165 159 158 162 165 168 176
318 319 322 327 327 330 329 304 261 195 184 174 165 162 166 181 184 159 143 156 160 177 124 130 155 179 160 108 106 76 73 76 45 98 127 184 180 220 218 186 180 176 169 171 166 150 155 157 156 160 165 166 177 190
318 319 325 330 329 333 330 313 205 184 177 160 152 150 164 161 146 141 132 163 201 211 134 106 118 136 153 130 82 114 31 101 128 83 109 233 251 250 227 213 192 179 178 167 146 142 153 156 163 163 165 172 182 197
316 319 326 331 334 333 329 332 180 183 160 151 150 137 144 145 143 146 121 155 205 282 172 133 147 130 141 129 123 46 141 66 160 172 224 260 266 233 209 186 184 183 179 177 181 167 168 169 163 165 165 168 174 187
316 321 327 332 334 333 332 251 169 166 168 161 142 130 134 151 119 136 169 152 208 208 153 144 139 127 125 123 104 50 108 147 176 134 215 248 251 157 156 159 161 169 171 168 164 160 157 156 155 155 152 155 163 175
315 323 330 335 339 335 334 215 163 164 157 130 130 136 151 166 180 183 183 194 192 170 168 154 132 130 116 96 83 123 130 144 126 188 235 238 129 161 159 154 162 158 161 162 154 151 151 148 145 148 148 145 144 276
318 326 331 342 348 340 340 249 169 157 141 127 138 142 189 185 221 183 187 160 159 154 146 130 110 113 119 104 142 118 107 153 178 235 235 203 183 163 163 159 157 156 155 150 149 146 146 149 150 151 157 173 234 258
325 329 331 349 341 340 337 156 162 170 119 127 140 185 189 102 53 139 130 119 131 149 139 115 92 103 108 116 92 124 152 205 218 233 233 178 160 161 161 159 153 153 155 155 155 157 158 161 167 177 197 224 239 253
334 336 345 347 340 340 342 156 151 154 83 110 106 105 110 102 133 157 148 136 147 152 143 96 115 112 129 141 155 198 173 216 221 200 172 150 148 151 156 157 158 160 160 159 158 163 174 180 184 192 205 222 253 269
345 347 347 349 342 344 356 103 135 96 107 105 94 113 142 118 168 166 147 156 160 158 116 136 128 144 118 150 187 195 209 217 165 156 151 150 142 136 142 149 151 153 153 156 163 172 190 195 193 196 209 242 271 272
355 351 348 347 347 352 9 32 75 73 71 69 119 137 112 111 145 146 156 156 161 159 135 159 129 148 166 172 204 212 169 143 137 147 150 148 140 136 138 139 143 150 158 170 185 193 194 194 196 204 222 249 236 211
350 344 346 346 349 348 358 25 36 71 63 96 113 103 110 122 133 140 151 157 163 130 129 117 103 159 194 202 188 165 160 146 139 139 141 140 138 139 143 145 150 160 172 179 180 179 177 180 186 195 215 207 192 178
343 333 341 346 353 355 7 18 26 62 59 62 100 99 110 119 135 144 147 146 130 95 45 51 109 177 184 195 182 173 157 149 140 131 135 140 144 148 150 154 160 165 166 164 164 167 169 173 179 180 174 168 171 177
355 346 345 357 6 26 35 4 33 49 51 73 111 76 79 118 117 133 121 138 110 101 107 88 111 112 114 122 141 148 143 143 140 144 146 146 151 156 154 153 156 157 163 160 163 165 169 167 165 162 166 172 175 184
345 349 342 2 9 11 36 12 359 6 56 79 58 61 87 75 91 107 123 75 68 94 134 142 135 131 125 119 125 134 136 142 144 145 147 151 148 150 151 154 155 160 157 158 159 163 168 172 171 166 168 174 172 177
345 347 349 356 341 23 354 2 35 16 44 41 39 67 39 54 70 109 79 76 96 134 143 143 139 137 129 123 126 124 126 134 135 137 140 145 147 149 156 163 166 170 169 168 175 179 177 172 168 171 170 173 182 247
350 360 13 19 14 351 348 14 14 13 39 38 46 56 25 28 32 69 82 54 103 143 148 144 144 137 129 131 127 123 126 131 137 138 139 149 159 159 162 163 169 181 184 188 178 174 173 172 173 173 176 185 248 303
354 351 4 342 12 12 19 5 357 18 55 29 68 45 16 350 76 66 70 60 126 135 142 148 153 153 143 135 130 133 136 137 145 152 149 154 162 160 166 172 173 173 172 181 176 173 170 170 171 174 187 246 293 307
60 345 32 281 326 49 343 13 5 13 13 51 43 345 346 47 64 65 53 19 104 136 142 147 149 145 141 143 144 144 145 148 152 157 159 161 162 166 179 176 168 165 166 161 176 170 170 171 175 187 230 288 312 322
42 307 23 25 350 334 10 347 341 16 21 32 31 24 30 59 68 70 79 72 116 126 136 148 155 156 158 153 149 149 152 154 156 163 163 164 164 161 152 165 167 169 165 161 162 166 172 180 197 222 284 310 318 319
139 173 157 176 48 27 137 31 20 37 359 345 336 46 70 30 83 71 95 121 122 121 125 128 132 140 142 143 143 147 152 154 158 160 156 154 154 157 157 156 151 155 157 157 161 171 184 196 216 292 316 319 320 320
160 159 151 27 24 38 51 89 105 49 357 340 84 82 87 75 123 131 128 126 127 125 131 138 140 141 144 147 151 153 155 153 161 162 165 155 150 146 146 151 154 155 158 169 179 184 192 209 274 310 318 322 323 322
209 172 105 109 124 221 335 47 70 75 57 71 91 100 87 94 117 134 138 140 141 143 148 150 147 145 149 155 156 155 157 161 165 165 170 162 161 159 155 156 159 165 172 183 192 181 223 284 307 318 322 323 322 317
162 170 94 110 167 132 133 112 111 109 99 74 78 96 112 123 129 144 153 162 162 161 162 161 159 157 160 162 163 167 166 169 168 164 160 160 160 162 164 166 169 172 180 190 208 243 276 297 307 311 313 315 312 309
144 175 126 142 249 124 128 169 127 96 89 106 82 109 131 135 149 180 193 195 193 189 184 178 177 182 185 186 184 181 177 174 168 167 168 165 168 169 168 168 174 183 195 214 241 268 288 299 305 308 310 308 310 313
127 133 117 114 106 172 163 149 63 64 54 57 63 101 138 153 166 190 192 196 195 192 191 190 190 187 185 185 183 180 173 173 174 168 164 165 168 168 171 172 178 193 218 249 277 291 299 304 306 306 309 311 314 313